Powrót do katalogu

H-1 R/B

MABES

AktywnyLEO
NORAD 16910·ROCKET BODY·🇯🇵 Japan

Wystrzelony Aug 12, 1986 z Tanegashima Space Center

Loading…

Następne Przeloty (najbliższe 24 godziny)

TLE

ŚwieżeSource: Space-Track

Epoka: Sep 14, 2026, 11:14 UTC

1 16910U 86061C   26257.46821288 -.00000057  00000-0  30311-3 0  9993
2 16910  50.0032 148.1574 0072659 133.8708  36.0043 12.32659293805458

Śledź H-1 R/B w czasie rzeczywistym z AllMySat

Download on the App Store